{"data":{"norad_id":43766,"intl_designator":"2018-099J","name":"SPAWAR-CAL-O","alt_names":[],"object_type":"PAYLOAD","status":"ACTIVE","operator":null,"country":"US","launch_date":"2018-12-03","launch_site_code":"AFWTR","launch_vehicle":null,"mission":null,"orbit_class":"UNKNOWN","rcs_meters":null,"size_class":null,"mass_kg":null,"dimensions":null,"purposes":[],"wikipedia_slug":null,"has_3d_model":false,"image_url":null,"decayed_at":null,"tle_current":{"epoch":"2026-05-25T02:46:49.762272Z","epoch_age_seconds":61113,"freshness":"FRESH","line1":"1 43766U 18099J   26145.11585373  .00018095  00000+0  54814-3 0  9991","line2":"2 43766  97.4346 208.9128 0007981  25.3456 334.8176 15.34183484409984","mean_motion":15.34183484,"eccentricity":0.0007981,"inclination_deg":97.4346,"raan_deg":208.9128,"arg_perigee_deg":25.3456,"mean_anomaly_deg":334.8176,"bstar":0.00054814,"rev_number":40998,"period_min":93.861002612644,"perigee_km":457.88665881172,"apogee_km":468.80703532841,"semimajor_km":6841.4838470701,"source":"CELESTRAK","updated_at":"2026-05-25T13:37:55.893618Z"}}}